User: anonymous   Login
Location: Caltech
(34.1382°N, 118.1253°W)
Time: 20:30:02
(UTC-08:00)
Language:

BREEZE M DEB (TANK) - Orbit

View from above orbital plane
View from above orbital plane
View from above satellite
View from above satellite

Ground track
Ground track

The orbit data is extracted from the following two-line orbital elements,

1 33437U 08057B   17054.86015259 +.00002209 +00000-0 +51382-3 0  9998
2 33437 049.5920 343.1641 5000302 353.1340 001.9788 05.60090382167495
Epoch (UTC): 23 February 2017 20:38:37
Eccentricity: 0.5000302
inclination: 49.5920°
perigee height: 318 km
apogee height: 13712 km
right ascension of ascending node: 343.1641°
argument of perigee: 353.1340°
revolutions per day: 5.60090382
mean anomaly at epoch: 1.9788°
orbit number at epoch: 16749

The dashed part of the orbit path shows where the satellite is in the earth's shadow,  

DLR